Home > Weather > Guelph > Past weeks

Flag for Canada Past Weather in Guelph, Ontario, Canada — Yesterday and Last 2 Weeks

Now
59 °F

Clear.


Feels Like: 58 °F
Forecast: 54 / 70 °F
Wind: 7 mph from Northwest

Location: Waterloo Well

Current Time: Jun 28, 2016 at 4:00:15 AM

Latest Report: Jun 28, 2016 at 3:00 AM


Visibility: 9 mi

Pressure: 29.93 "Hg

Humidity: 82%

Dew Point: 54 °F

Location of GuelphLocation

Past Weather in Guelph — Graph

°F

Guelph Temperature Yesterday

Maximum temperature yesterday: 90 °F (at 3:00 PM)
Minimum temperature yesterday: 68 °F (at 5:00 AM)
Average temperature yesterday: 78 °F

High & Low Weather Summary for the Past Weeks

 TemperatureHumidityPressure
High90 °F (Jun 20, 4:00 PM)100% (Jun 14, 5:00 AM)30.29 "Hg (Jun 14, 5:00 AM)
Low41 °F (Jun 14, 5:57 AM)23% (Jun 18, 2:00 PM)29.72 "Hg (Jun 16, 1:00 PM)
Average67 °F60%30.00 "Hg
* Reported Jun 13 2:00 AM — Jun 28 2:00 AM, Guelph, Weather by CustomWeather, © 2016

Note: Actual official high and low records may vary slightly from our data, if they occured in-between our weather recording intervals... More about our weather records

Advertising

Guelph Weather History for the Previous 24 Hours

Scroll right to see more
 ConditionsComfort  
Time TempWeatherWind HumidityBarometerVisibility
2:00 AM
Tue, Jun 28
61 °FPassing clouds.8 mph83%29.93 "Hg9 mi
1:00 AM63 °FPassing clouds.8 mph77%29.93 "Hg9 mi
12:00 AM66 °FPassing clouds.13 mph68%29.93 "Hg9 mi
11:00 PM
Mon, Jun 27
68 °FMostly cloudy.13 mph64%29.93 "Hg9 mi
10:00 PM70 °FMostly cloudy.12 mph64%29.92 "Hg9 mi
9:00 PM73 °FSunny.13 mph65%29.89 "Hg9 mi
8:00 PM81 °FSunny.9 mph48%29.85 "Hg9 mi
7:00 PM84 °FSunny.14 mph35%29.84 "Hg9 mi
6:00 PM88 °FScattered clouds.14 mph29%29.83 "Hg9 mi
5:00 PM88 °FScattered clouds.17 mph31%29.85 "Hg9 mi
4:00 PM90 °FScattered clouds.16 mph24%29.85 "Hg9 mi
3:00 PM90 °FSunny.25 mph24%29.87 "Hg9 mi
2:00 PM88 °FPassing clouds.18 mph27%29.89 "Hg9 mi
1:00 PM86 °FPassing clouds.14 mph33%29.90 "Hg9 mi
12:00 PM86 °FSunny.15 mph38%29.91 "Hg9 mi
11:00 AM82 °FSunny.14 mph42%29.93 "Hg9 mi
10:00 AM81 °FSunny.8 mph54%29.93 "Hg9 mi
9:00 AM75 °FSunny.9 mph65%29.93 "Hg9 mi
8:00 AM73 °FSunny.12 mph74%29.93 "Hg9 mi
7:00 AM70 °FSunny.9 mph78%29.92 "Hg9 mi
6:00 AM68 °FClear.6 mph83%29.91 "Hg9 mi
5:00 AM68 °FFog.5 mph94%29.91 "Hg4 mi
4:00 AM70 °FPassing clouds.6 mph94%29.91 "Hg7 mi
Weather by CustomWeather, © 2016

See weather overviewHow to use our weather pages